Location: El Álamo
(40.2307°N, 3.9945°W)
Time: 04:54:46
(UTC+00:00)

Cosmos 2360 - Pass Details

Date: 19 May 2025
Orbit: 846 x 854 km, 70.8° (Epoch: 23 June)

Event Time Altitude Azimuth Distance (km) Brightness Sun altitude
Rises 20:44:50 0° 340° (NNW) 3,428 8.5 -12.8°
Reaches altitude 10° 20:47:22 10° 345° (NNW) 2,487 7.5 -13.2°
Maximum altitude 20:52:58 56° 63° (ENE) 1,011 4.5 -14.0°
Enters shadow 20:56:38 21° 134° (SE) 1,799 5.3 -14.5°
